Other Public Products
Issued by NWS Grand Forks, ND

Home | Current Version | Previous Version | Graphics & Text | Print | Product List | Glossary On
Versions: 1 2 3 4 5 6 7 8 9 10 11 12 13 14 15 16 17 18 19 20 21 22 23 24 25 26 27 28 29 30 31 32 33 34 35 36 37 38 39 40 41 42 43 44 45 46 47 48 49 50
000
FPUS83 KFGF 011031
OPUFGF
PRAIRIE TO PINES WEATHER ROUNDUP
NATIONAL WEATHER SERVICE EASTERN NORTH DAKOTA/GRAND FORKS ND
500 AM CDT WED OCT 01 2014

 **SATELLITE DATA USED TO AUGMENT SKY COVER AT AUTOMATED STATIONS**
 *****  WEATHER ACROSS EASTERN NORTH DAKOTA  *****

CITY           SKY/WX    TMP DP  RH WIND       PRES   REMARKS
GRAND FORKS    CLOUDY    61  54  77 S17       29.52R
GRAND FORKS AF CLOUDY    60  55  85 SW24G32   29.51R
GRAND CITY NWS   N/A     59 N/A N/A S20         N/A
BUXTON           N/A     61  56  84 S12G23      N/A
DEVILS LAKE    CLOUDY    55  46  71 SW15G21   29.45R
FARGO          MOCLDY    62  57  83 S18G26    29.60R
WAHPETON ARPT  CLOUDY    59  54  82 S13       29.65R
$$

 *****  WEATHER ACROSS CENTRAL AND WESTERN NORTH DAKOTA  *****

CITY           SKY/WX    TMP DP  RH WIND       PRES   REMARKS
JAMESTOWN      CLOUDY    56  52  86 S10       29.56R
BISMARCK       CLOUDY    56  53  90 W10       29.55R
MINOT          MOCLDY    51  48  89 SW8       29.43R
MINOT AFB      CLOUDY    49  49 100 W7        29.43R
GARRISON         N/A     54  52  93 SW8       29.48R
WILLISTON      CLOUDY    54  50  86 W22G29    29.52R
DICKINSON      CLOUDY    53  48  83 W17G28    29.59R
HETTINGER      CLOUDY    52  49  89 W18       29.66R
$$

 *****  OTHER OBSERVATIONS NORTHEAST NORTH DAKOTA  *****

CITY           SKY/WX    TMP DP  RH WIND       PRES   REMARKS
WALHALLA       FAIR      59  57  94 S22G33    29.41S
LANGDON        CLOUDY    54  50  87 SW24G33   29.42R
CAVALIER       CLOUDY    59  54  82 S18G30    29.43R
GRAFTON        CLOUDY    59  54  82 S20G29    29.48R
CANDO          CLOUDY    52  50  93 SW18      29.43R
FORT TOTTEN      N/A     54  51  90 SW9       29.95
ROLLA          CLOUDY    52  52 100 SW17      29.38R
RUGBY          CLOUDY    50  50 100 SW13      29.43R
 ***** THE ABOVE OBSERVATIONS ARE NON NWS ARE NOT QUALITY
        CONTROLLED AND MAY MIS-REPORT RAIN FOR SNOW...
$$

 *****  OTHER OBSERVATIONS SOUTHEAST NORTH DAKOTA *****

CITY           SKY/WX    TMP DP  RH WIND       PRES   REMARKS
COOPERSTOWN    NOT AVBL
VALLEY CITY    CLOUDY    55  55 100 S14G21    29.57R
OAKES            N/A     55  54  94 S14       29.63S
GWINNER          N/A     57  54  88 SW10      29.64R
SHEYENNE NWR     N/A     59  54  83 SW13      29.95
BUFFALO          N/A     58  51  77 SW13        N/A
WYNDMERE         N/A     59  57  94 S7          N/A
 ***** THE ABOVE OBSERVATIONS ARE NON NWS ARE NOT QUALITY
       CONTROLLED AND MAY MIS-REPORT RAIN FOR SNOW...
$$

  *****  WEATHER ACROSS NORTHERN MINNESOTA  *****

CITY           SKY/WX    TMP DP  RH WIND       PRES   REMARKS
FLAG ISLAND    CLOUDY    54  48  82 SE28G35   29.60F
WARROAD        MOCLDY    54  48  82 SE18G25   29.60F
ROSEAU         CLOUDY    55  48  76 SE22      29.57F
HALLOCK        CLOUDY    63  55  77 S20G31    29.47S
THF RVR FALLS  CLOUDY    59  54  82 S21G29    29.56S
HALSTAD          N/A     62  57  86 S18         N/A
FOSSTON        MOCLDY    55  52  88 S21G28    29.62S
BAUDETTE       CLOUDY    50  44  80 SE12      29.67F
WASKISH        CLOUDY    52  48  87 SE13G23   29.68S
CROOKSTON      MOCLDY    63  57  82 S26G32    29.56R
$$
  *****  WEATHER ACROSS CENTRAL AND WEST MINNESOTA  *****

CITY           SKY/WX    TMP DP  RH WIND       PRES   REMARKS
BEMIDJI        CLOUDY    53  49  87 SE14G20   29.69F
PARK RAPIDS    CLOUDY    52  49  89 SE20      29.72S
WADENA         CLOUDY    54  52  94 S14       29.72S
DETROIT LAKES  CLOUDY    59  55  88 S13       29.67S
MOORHEAD       NOT AVBL
FERGUS FALLS   CLOUDY    61  57  88 S17G24    29.68R
ELBOW LAKE     CLOUDY    59  56  92 S16       29.69S
MORRIS MN      PTCLDY    61  57  88 SE13      29.69F FOG
STAPLES        CLOUDY    50  48  93 S13G18    29.74S
WHEATON        CLEAR     59  55  88 SE12G20   29.68S
$$
  *****  WEATHER ELSEWHERE ACROSS MINNESOTA  *****

CITY           SKY/WX    TMP DP  RH WIND       PRES   REMARKS
DULUTH         CLOUDY    47  42  83 SE13      29.86F
INTRNTL FALLS  MOCLDY    49  43  80 SE12      29.75F
ELY            MOCLDY    46  43  87 SE10      29.85S
CLOQUET        CLOUDY    46  43  87 E7        29.85F
BRAINERD       CLOUDY    50  46  86 SE12G21   29.79S
HIBBING        CLOUDY    50  44  80 SE9       29.83F
ALEXANDRIA     CLOUDY    56  55  97 SE15      29.74S FOG
SAINT CLOUD    CLOUDY    53  46  77 SE12      29.80F
MINNEAPOLIS    CLOUDY    50  44  80 SE13G24   29.85S
$$

  *****  WEATHER ACROSS SOUTH DAKOTA  *****

CITY           SKY/WX    TMP DP  RH WIND       PRES   REMARKS
SIOUX FALLS    DRIZZLE   63  61  93 S8        29.71F FOG
BROOKINGS      NOT AVBL
WATERTOWN      CLOUDY    61  59  93 S12       29.69S
HURON          PTCLDY    60  58  92 S7        29.67F FOG
SISSETON         N/A     60  59  96 S8        29.65R
ABERDEEN       PTCLDY    56  50  80 S9        29.66R
MITCHELL       MOCLDY    63  61  93 S6        29.68S
PIERRE         MOCLDY    55  47  74 SW8       29.67R
MOBRIDGE       PTCLDY    57  52  83 SW10      29.61R
RAPID CITY     MOCLDY    51  46  83 W5        29.76R
$$

  *****  SOME WEATHER IN NEARBY STATES *****

CITY           SKY/WX    TMP DP  RH WIND       PRES   REMARKS
GLASGOW MT     CLOUDY    50  45  83 W20G28    29.67R
GREAT FALLS MT CLOUDY    43  40  89 SW9       29.91S
CHEYENNE WY    CLOUDY    45  35  68 W7        29.90R
SCOTTSBLUFF NE CLEAR     46  44  93 NW6       29.83R
OMAHA NE       LGT RAIN  62  60  93 S3        29.73R FOG
DES MOINES IA  RAIN      61  58  90 SE10      29.81S FOG
DAVENPORT IA   NOT AVBL
CHICAGO IL     MOCLDY    54  46  74 SE13      30.00S
EAU CLAIRE WI  CLOUDY    48  43  82 SE13G21   29.93F
LA CROSSE WI   CLOUDY    50  44  80 SE8       29.95S
$$

  *****  SOME NATIONAL WEATHER *****

CITY           SKY/WX    TMP DP  RH WIND       PRES   REMARKS
LA GUARDIA NY  CLOUDY    62  57  83 N8        29.99R
RALEIGH NC     PTCLDY    59  57  93 NE5       29.96R FOG
ATLANTA GA     PTCLDY    66  63  90 W6        29.96R
NEW ORLEANS LA PTCLDY    75  72  90 E5        29.88R
OKLAHOMA CITY  PTCLDY    71  66  84 S12       29.74R
ALBUQUERQUE NM CLEAR     56  35  45 CALM      29.97S
SALT LAKE CITY MOCLDY    49  38  65 W8        29.97S
LOS ANGELES CA PTCLDY    65  61  87 CALM      29.77S
BOISE ID       CLEAR     47  38  71 W7        30.07R
SEATTLE WA     MOCLDY    54  49  83 CALM      30.20R
$$

*** WEATHER ACROSS MANITOBA...SASKATCHEWAN AND ONTARIO ***
                ***ONTARIO***

CITY           SKY/WX    TMP DP  RH WIND       PRES   REMARKS
GERALDTON      CLOUDY    37  37 100 SE2       29.99S
THUNDER BAY    CLOUDY    45  45 100 VRB2      29.97R
SIOUX LOOKOUT  MOCLDY    45  41  87 S12G18    29.80F
TORONTO        CLOUDY    59  54  82 NE7       30.04S
BIG TROUT LK   CLEAR     45  39  81 S14G20    29.79F
PICKLE LAKE    NOT AVBL
DRYDEN         CLOUDY    48  43  81 SE12G20   29.75F
KENORA         CLOUDY    50  45  81 S16G25    29.66F
$$
                *** MANITOBA***

CITY           SKY/WX    TMP DP  RH WIND       PRES   REMARKS
BRANDON        LGT RAIN  50  50 100 NE10      29.34F FOG
DAUPHIN        RAIN      50  50 100 N5        29.38F FOG
ISLAND LAKE    PTCLDY    46  43  87 SE12      29.64F
PILOT MOUND      N/A     55  54  94 S18G24      N/A
THE PAS        LGT RAIN N/A N/A N/A E6          N/A
THOMPSON       CLOUDY    48  48 100 SE3       29.55F
WINNIPEG       LGT RAIN  55  52  88 SE20G30   29.44F
LYNN LAKE      LGT RAIN  48  48 100 CALM      29.50F VSB 3/8
CHURCHILL      LGT RAIN  43  41  93 S12G18    29.65F
GILLAM         PTCLDY    39  39 100 SE5       29.63F
$$
                ***SASKATCHEWAN***

CITY           SKY/WX    TMP DP  RH WIND       PRES   REMARKS
ESTEVAN        LGT RAIN  50  50 100 W5        29.45R FOG
KINDERSLEY     CLOUDY    46  43  87 NW10      29.70R
LLOYDMINSTER   PTCLDY    45  41  87 NW14      29.71R
PRINCE ALBERT  CLOUDY    52  50  93 NW10      29.53S
REGINA         LGT RAIN  52  50  93 NW16      29.48S



USA.gov is the U.S. government's official web portal to all federal, state and local government web resources and services.